Weather History for Cecil Field, FL

Change the Weather History Date:

Thursday, November 10, 2011

  Actual Average (KJAX) Record (KJAX)
Temperature  
Mean Temperature 59 °F 64 °F  
Max Temperature 77 °F 75 °F 84 °F (1948)
Min Temperature 41 °F 52 °F 33 °F (1976)
Degree Days  
Heating Degree Days 6 4  
Month to date heating degree days 31  
Since 1 July heating degree days 59  
Cooling Degree Days 0 2  
Month to date cooling degree days 28  
Year to date cooling degree days 2611  
Growing Degree Days 9 (Base 50)    
Moisture  
Dew Point 45 °F    
Average Humidity 76    
Maximum Humidity 100    
Minimum Humidity 41    
Precipitation  
Precipitation 0.77 in 0.07 in 2.29 in (1981)
Month to date precipitation 0.75  
Year to date precipitation 48.23  
Snow  
Snow 0.00 in 0.00 in 0.00 in (2002)
Month to date snowfall 0.0  
Since 1 July snowfall 0.0  
Since 1 September snowfall 0.0  
Snow Depth -    
Sea Level Pressure  
Sea Level Pressure 29.96 in    
Wind  
Wind Speed 4 mph (WNW)    
Max Wind Speed 17 mph    
Max Gust Speed 24 mph    
Visibility 8 miles    
Events      
T = Trace of Precipitation, MM = Missing Value Source: NWS Daily Summary

Daily Weather History Graph

Daily Weather History Graph

Search for Another Location

Airport:

Trip Planner

Search our weather history database for the weather conditions in past years. The results will help you decide how hot, cold, wet, or windy it might be!

Date:

Astronomy

Nov. 10, 2011 Rise Set
Actual Time 6:48 AM EST 5:33 PM EST
Civil Twilight 6:23 AM EST 5:58 PM EST
Nautical Twilight 5:54 AM EST 6:27 PM EST
Astronomical Twilight 5:26 AM EST 6:56 PM EST
Moon 5:24 PM EST (11/10) 6:36 AM EST (11/10)
Length of Visible Light 11h 35m
Length of Day
10h 45m
Full, 100% of the Moon is Illuminated
Nov 10
Full
Nov 10
Full
Nov 18
Last Quarter
Nov 25
New
Dec 2
First Quarter

Hourly Weather History & Observations

Time (EST) Temp. Dew Point Humidity Pressure Visibility Wind Dir Wind Speed Gust Speed Precip Events Conditions
12:15 AM 44.6 °F 44.6 °F 100% 29.98 in 1.2 mi Calm Calm - 0.07 in   Unknown
12:35 AM 44.6 °F 44.6 °F 100% 29.98 in 5.0 mi Calm Calm - 0.07 in   Clear
12:55 AM 44.6 °F 44.6 °F 100% 29.98 in 5.0 mi Calm Calm - 0.07 in   Clear
1:15 AM 44.6 °F 44.6 °F 100% 29.97 in 5.0 mi Calm Calm - 0.07 in   Clear
1:35 AM 44.6 °F 44.6 °F 100% 29.96 in 2.0 mi Calm Calm - 0.07 in   Clear
1:55 AM 44.6 °F 44.6 °F 100% 29.96 in 9.0 mi Calm Calm - 0.07 in   Clear
2:15 AM 42.8 °F 42.8 °F 100% 29.95 in 1.5 mi Calm Calm - 0.07 in   Unknown
2:35 AM 42.8 °F 42.8 °F 100% 29.95 in 0.2 mi Calm Calm - 0.07 in   Unknown
2:55 AM 44.6 °F 44.6 °F 100% 29.94 in 5.0 mi Calm Calm - 0.07 in   Clear
3:15 AM 41.0 °F 41.0 °F 100% 29.94 in 6.0 mi Calm Calm - 0.07 in   Clear
3:35 AM 41.0 °F 41.0 °F 100% 29.94 in 7.0 mi Calm Calm - 0.07 in   Clear
3:55 AM 44.6 °F 44.6 °F 100% 29.95 in 1.5 mi Calm Calm - 0.07 in   Unknown
4:15 AM 41.0 °F 41.0 °F 100% 29.95 in 5.0 mi Calm Calm - 0.07 in   Clear
4:35 AM 42.8 °F 42.8 °F 100% 29.94 in 7.0 mi Calm Calm - 0.07 in   Clear
4:55 AM 41.0 °F 41.0 °F 100% 29.94 in 1.8 mi Calm Calm - 0.07 in   Unknown
5:15 AM 41.0 °F 41.0 °F 100% 29.93 in 0.8 mi Calm Calm - 0.07 in   Unknown
5:35 AM 41.0 °F 41.0 °F 100% 29.93 in 7.0 mi Calm Calm - 0.07 in   Clear
7:50 AM 50.0 °F 50.0 °F 100% 29.97 in 10.0 mi Calm Calm - N/A   Clear
8:50 AM 55.4 °F 53.6 °F 94% 29.97 in 10.0 mi Calm Calm - N/A   Clear
9:50 AM 64.4 °F 55.4 °F 73% 29.97 in 10.0 mi Calm Calm - N/A   Clear
10:50 AM 71.6 °F 57.2 °F 60% 29.96 in 10.0 mi NNW 4.6 mph - N/A   Clear
11:50 AM 75.2 °F 57.2 °F 53% 29.92 in 10.0 mi NNW 5.8 mph - N/A   Clear
12:50 PM 77.0 °F 57.2 °F 50% 29.89 in 10.0 mi NNW 9.2 mph - N/A   Clear
1:50 PM 77.0 °F 59.0 °F 54% 29.86 in 10.0 mi West 11.5 mph - N/A   Scattered Clouds
2:50 PM 75.2 °F 59.0 °F 57% 29.87 in 10.0 mi West 17.3 mph - N/A   Mostly Cloudy
3:50 PM 68.0 °F 62.6 °F 83% 29.89 in 10.0 mi WNW 15.0 mph - N/A   Mostly Cloudy
4:50 PM 66.2 °F 60.8 °F 83% 29.88 in 10.0 mi West 9.2 mph - N/A   Mostly Cloudy
5:50 PM 64.4 °F 59.0 °F 83% 29.91 in 10.0 mi West 9.2 mph - N/A   Mostly Cloudy
6:50 PM 62.6 °F 55.4 °F 77% 29.94 in 10.0 mi West 5.8 mph - N/A   Mostly Cloudy
7:50 PM 62.6 °F 48.2 °F 59% 29.97 in 10.0 mi WNW 16.1 mph - N/A   Clear
7:55 PM 60.8 °F 48.2 °F 63% 29.98 in 10.0 mi NW 11.5 mph 20.7 mph 0.07 in   Clear
8:15 PM 60.8 °F 48.2 °F 63% 29.98 in 10.0 mi WNW 9.2 mph - 0.07 in   Clear
8:35 PM 59.0 °F 42.8 °F 55% 29.98 in 10.0 mi NW 11.5 mph 18.4 mph 0.07 in   Clear
9:15 PM 57.2 °F 39.2 °F 51% 30.00 in 10.0 mi NW 15.0 mph 19.6 mph 0.07 in   Clear
9:35 PM 57.2 °F 37.4 °F 48% 30.01 in 10.0 mi NW 17.3 mph - 0.07 in   Clear
9:55 PM 57.2 °F 33.8 °F 41% 30.03 in 10.0 mi WNW 16.1 mph 21.9 mph 0.07 in   Clear
10:15 PM 55.4 °F 32.0 °F 41% 30.04 in 10.0 mi NW 15.0 mph 24.2 mph 0.07 in   Clear
10:35 PM 55.4 °F 32.0 °F 41% 30.06 in 10.0 mi NW 12.7 mph 19.6 mph 0.07 in   Clear
10:55 PM 53.6 °F 32.0 °F 44% 30.05 in 10.0 mi NW 16.1 mph 19.6 mph 0.07 in   Clear
11:15 PM 53.6 °F 32.0 °F 44% 30.06 in 10.0 mi NW 12.7 mph - 0.07 in   Clear
11:35 PM 53.6 °F 32.0 °F 44% 30.06 in 10.0 mi NW 10.4 mph 18.4 mph 0.07 in   Clear
11:55 PM 51.8 °F 32.0 °F 47% 30.06 in 10.0 mi WNW 15.0 mph 18.4 mph 0.07 in   Clear